Location: La Fredeussais
(48.1780°N, 1.3980°W)
Time: 09:21:02
(UTC+00:00)

STARLINK-2701 - Visible Passes

Search period start: 01 December 2021 00:00
Search period end: 11 December 2021 00:00
Orbit: 546 x 549 km, 53.1° (Epoch: 30 November)

Date Brightness Start Highest point End Pass type
(mag) Time Alt. Az. Time Alt. Az. Time Alt. Az.
01 Dec 3.7 17:23:10 10° SW 17:27:16 69° SSE 17:30:09 19° ENE visible
01 Dec 5.0 19:02:58 10° W 19:05:45 35° WNW 19:05:45 35° WNW visible
02 Dec 3.6 17:16:50 10° WSW 17:20:57 84° SSE 17:24:09 17° ENE visible
02 Dec 4.9 18:56:47 10° W 18:59:44 36° NW 18:59:44 36° NW visible
03 Dec 3.6 17:10:32 10° WSW 17:14:40 82° NNW 17:18:06 15° ENE visible
03 Dec 4.8 18:50:36 10° WNW 18:53:42 37° NW 18:53:42 37° NW visible
04 Dec 3.7 17:04:16 10° WSW 17:08:23 70° NNW 17:12:03 13° ENE visible
04 Dec 4.6 18:44:24 10° WNW 18:47:39 38° NNW 18:47:39 38° NNW visible
05 Dec 3.9 16:58:02 10° W 17:02:07 61° NNW 17:06:00 11° ENE visible
05 Dec 4.5 18:38:11 10° WNW 18:41:36 39° NNW 18:41:36 39° NNW visible
06 Dec 4.0 16:51:49 10° W 16:55:52 54° NNW 16:59:56 10° ENE visible
06 Dec 4.4 18:31:56 10° WNW 18:35:33 41° N 18:35:33 41° N visible
07 Dec 4.1 16:45:37 10° W 16:49:38 49° NNW 16:53:40 10° ENE visible
07 Dec 4.2 18:25:42 10° WNW 18:29:31 44° N 18:29:31 44° N visible
08 Dec 4.0 18:19:26 10° WNW 18:23:27 47° NNE 18:23:31 47° NNE visible
08 Dec 6.9 19:59:01 10° WNW 19:59:07 11° WNW 19:59:07 11° WNW visible
09 Dec 3.8 18:13:09 10° WNW 18:17:12 51° NNE 18:17:34 49° NE visible
09 Dec 6.7 19:52:45 10° WNW 19:53:11 13° WNW 19:53:11 13° WNW visible
10 Dec 3.7 18:06:51 10° WNW 18:10:56 57° NNE 18:11:41 48° ENE visible
10 Dec 6.5 19:46:29 10° WNW 19:47:18 15° WNW 19:47:18 15° WNW visible
